Hourly Data Report for June 06, 2003

SHERBROOKE A
QUEBEC

45°26'00.000" N
71°41'00.000" W
241.40 m
7028124
71610
YSC

Download Data

Hourly Data (June 2003)
Hourly Data Report for June 6, 2003
TIME
LST
Temp Definition
°C
Dew Point Definition
°C
Rel Hum Definition
%
Precip. Amount Definition
mm

Wind Dir Definition
10's deg

Wind Spd Definition
km/h
Visibility Definition
km
Stn Press Definition
kPa
Hmdx Definition


Wind Chill Definition


Weather Definition


00:00 11.3 10.6 95   25 11 9.7 97.64      
01:00 11.1 10.4 95     0 9.7 97.65     Rain
02:00 11.0 10.5 97   24 11 2.3 97.66     Rain
03:00 11.6 11.2 97   26 17 6.4 97.69     Rain
04:00 11.6 11.2 97   27 13 8.0 97.73      
05:00 11.4 11.0 97   28 11 5.6 97.86      
06:00 11.8 11.2 96   27 9 5.6 97.92      
07:00 12.3 11.5 95   23 7 8.0 97.97     Fog
08:00 14.5 12.5 88   26 13 24.1 98.03     Mainly Clear
09:00 16.7 12.9 78   27 20 24.1 98.10     Mostly Cloudy
10:00 18.4 13.1 71   27 17 24.1 98.16     Mainly Clear
11:00 19.7 12.4 63   27 20 24.1 98.21     Mainly Clear
12:00 20.9 12.0 57   27 20 24.1 98.19     Mainly Clear
13:00 21.5 12.4 56   26 22 24.1 98.20     Mostly Cloudy
14:00 21.6 12.8 57   27 17 24.1 98.18     Mostly Cloudy
15:00 19.0 11.6 62   24 17 24.1 98.24     Mainly Clear
16:00 20.0 11.8 59   24 9 24.1 98.24     Mostly Cloudy
17:00 18.1 12.3 69   23 11 15.0 98.30     Rain
18:00 17.9 12.1 69   18 9 15.0 98.35      
19:00 16.4 12.8 79   11 7 15.0 98.36      
20:00 14.7 11.4 81   23 6 15.0 98.45      
21:00 11.1 10.1 94     0 15.0 98.49      
22:00 10.5 9.5 94     0 15.0 98.52      
23:00 9.9 9.1 95     0 15.0 98.58      

Notes on Data Quality.

Legend

  • E = Estimated
  • M = Missing
  • NA = Not Available*
  • [empty] = Indicates an unobserved value
Date modified: